SCP
1 1 1 1 1 1 1 1 1 1 1 1 1 0 0 0 0 0 0 0 0 0 0 0 0 0 0 0 0 0 0 0 0 0 0 0 0 0 0 0 0 0 1
0 0 1 1 1 1 1 1 1 1 1 1 0 0 0 0 0 0 0 0 0 0 0 0 0 0 0 0 0 0 0 0 0 0 0 0 0 0 0 0 0 0 1
0 0 0 0 0 0 1 1 1 1 0 0 0 0 0 0 0 0 0 0 0 0 0 0 0 0 0 0 0 0 0 0 0 0 0 0 0 0 0 0 0 0 1
0 0 0 0 0 0 0 0 1 1 0 0 0 0 0 0 0 0 0 0 0 0 0 0 0 0 0 0 0 0 0 0 0 0 0 0 0 0 0 0 0 0 0
0 0 0 0 0 0 0 0 1 1 0 0 0 0 0 0 0 0 0 0 0 0 0 0 0 0 0 0 0 0 0 0 0 0 0 0 0 0 0 0 0 0 0
0 0 0 0 0 0 0 1 1 1 1 0 0 0 0 0 0 0 0 0 0 0 0 0 0 0 0 0 0 0 0 0 0 0 0 0 0 0 0 0 0 0 0
0 0 0 0 0 0 0 1 1 1 1 0 0 0 0 0 0 0 0 0 0 0 0 0 0 0 0 0 0 0 0 0 0 0 0 0 0 0 0 0 0 0 0
0 0 0 0 0 0 0 1 1 1 1 0 0 0 0 0 0 0 0 0 0 0 0 0 0 0 0 0 0 0 0 0 0 0 0 0 0 0 0 0 0 0 0
0 0 0 0 0 0 0 1 1 1 0 0 0 0 0 0 0 0 0 0 0 0 0 0 0 0 0 0 0 0 0 0 0 0 0 0 0 0 0 0 0 0 0
0 0 0 0 0 0 0 0 0 0 0 0 0 0 0 0 0 0 0 0 0 0 0 0 0 0 0 0 0 0 0 0 0 0 0 0 0 0 0 0 0 0 0
0 0 0 0 0 0 0 0 0 0 0 0 0 0 0 0 0 0 0 0 0 0 0 0 0 0 0 0 0 0 0 0 0 0 0 0 0 0 0 0 0 0 0
0 0 0 0 0 0 0 0 0 0 0 0 0 0 0 0 0 0 0 0 0 0 0 0 0 0 0 0 0 0 0 0 0 0 0 0 0 0 0 0 0 0 0
0 0 0 0 0 0 0 0 0 0 0 0 0 0 0 0 0 0 0 0 0 0 0 0 0 0 0 0 0 0 0 0 0 0 0 0 0 0 0 0 0 0 0
0 0 0 0 0 0 0 0 0 0 0 0 0 0 0 0 0 0 0 0 0 0 0 0 0 0 0 0 0 0 0 0 0 0 0 0 0 0 0 0 0 0 0
0 0 0 0 0 0 0 0 0 0 0 0 0 0 0 0 0 0 0 0 0 0 0 0 0 0 0 0 0 0 0 0 0 0 0 0 0 0 0 0 0 0 0
0 0 0 1 0 0 0 0 0 0 0 0 0 0 0 0 0 0 0 0 0 0 0 0 0 0 0 0 0 0 0 0 0 0 0 0 0 0 0 0 0 0 0
0 0 0 1 0 0 0 0 0 0 0 0 0 0 0 0 0 0 0 0 0 0 0 0 0 0 0 0 0 0 0 0 0 0 0 0 0 0 0 0 0 0 0
0 0 0 0 0 0 0 0 0 0 0 0 0 0 0 0 0 0 0 0 0 0 0 0 0 0 0 0 0 0 0 0 0 0 0 0 0 0 0 0 0 0 0
0 0 0 0 0 0 0 0 0 0 0 0 0 0 0 0 0 0 0 0 0 0 0 0 0 0 0 0 0 0 0 0 0 0 0 0 0 0 0 0 0 0 0
0 0 0 0 1 1 1 0 0 0 0 0 0 0 0 0 0 0 0 0 0 0 0 0 0 0 0 0 0 0 0 0 0 0 0 0 0 0 0 0 0 0 0
0 0 1 1 1 1 1 1 0 0 0 0 0 0 0 0 0 0 0 0 0 0 0 0 0 0 0 0 0 0 0 0 0 0 0 0 0 0 0 0 0 0 0
0 0 1 1 1 1 1 1 1 0 0 0 0 0 0 0 0 0 0 0 0 0 0 0 0 0 0 0 0 0 0 0 0 0 0 0 0 0 0 0 0 0 0
1 1 1 1 1 1 1 1 1 1 0 0 0 0 0 0 0 0 0 0 0 0 0 0 0 0 0 0 0 0 0 0 0 0 0 0 0 0 0 0 0 0 0
1 1 1 1 1 1 1 1 1 1 0 0 0 0 0 0 0 0 0 0 0 0 0 0 0 0 0 0 0 0 0 0 0 0 0 0 0 0 0 0 0 0 0
1 1 1 1 1 1 1 1 1 1 1 0 0 0 0 0 0 0 0 0 0 0 0 0 0 0 0 0 0 0 0 0 0 0 0 0 0 0 0 0 0 0 0
2 2 2 1 1 1 1 1 1 1 1 0 0 0 0 0 0 0 0 0 0 0 0 0 0 0 0 0 0 0 0 0 0 0 0 0 0 0 0 0 0 0 0
Wind_Speed
9 8 9 9 9 8 7 6 6 5 3 2 1 1 1 1 1 3 3 2 1 1 1 2 1 1 1 2 3 2 4 4 3 3 4 5 6 6 6 6 6 6 7
9 9 8 8 8 7 7 7 6 5 3 2 1 1 1 1 1 2 2 1 1 0 2 2 2 2 2 3 2 2 2 4 3 3 4 4 4 2 5 4 5 5 4
10 10 9 8 8 8 7 6 6 5 3 2 1 0 0 1 0 1 1 1 0 1 1 1 2 3 4 3 2 3 3 3 4 3 2 3 3 4 4 3 2 2 2
11 10 10 9 8 8 8 7 6 4 3 1 1 1 1 1 1 1 1 1 1 2 2 2 2 2 3 4 5 3 3 3 4 4 3 3 3 3 4 4 3 3 3
11 11 10 9 8 8 8 8 6 4 3 1 1 1 3 3 3 3 3 2 3 3 3 2 1 1 2 4 4 5 4 3 4 4 4 4 3 4 4 5 4 4 3
11 11 10 8 7 7 7 8 7 5 3 1 0 1 2 3 4 4 4 3 2 2 2 1 2 2 3 4 4 4 5 4 5 4 4 4 4 4 4 4 5 4 4
11 11 11 9 7 7 6 7 8 5 3 1 1 1 2 3 4 3 3 3 3 3 4 4 3 3 3 4 4 4 5 5 5 5 4 4 4 4 4 4 4 5 4
11 11 11 9 8 7 7 7 7 5 2 1 1 1 1 2 3 4 4 4 3 3 4 4 3 4 4 5 4 4 5 5 5 6 6 4 5 5 4 4 4 5 5
12 11 10 9 8 7 6 6 6 4 2 1 0 2 2 1 2 3 4 3 3 5 5 5 5 5 5 5 5 4 5 5 5 5 6 5 4 4 4 4 4 4 6
11 10 8 7 7 7 6 6 5 4 2 2 2 1 1 1 1 2 3 3 3 4 4 5 5 5 5 5 5 5 5 6 5 5 6 5 5 5 4 4 4 4 5
10 10 9 9 7 7 6 6 4 4 3 2 1 1 2 2 2 2 3 3 3 4 4 5 5 5 5 5 5 6 6 6 6 6 6 6 6 5 5 5 4 4 4
10 11 10 9 7 6 5 5 3 2 2 2 1 1 1 2 2 3 3 4 4 4 5 5 5 6 6 5 5 6 7 6 7 7 6 7 7 6 5 5 6 6 5
9 10 9 8 7 5 4 3 3 2 1 1 1 1 1 2 2 3 4 4 4 5 5 5 5 6 6 6 6 6 6 6 6 6 7 7 7 6 6 6 6 6 7
8 8 8 6 6 5 4 3 3 2 1 1 1 2 2 2 3 4 4 4 4 5 5 5 5 5 6 7 6 6 5 6 6 6 7 7 7 7 6 6 6 6 6
10 9 8 7 6 6 5 4 3 2 2 1 3 2 2 2 3 4 4 4 5 6 5 5 5 6 6 6 3 4 6 6 7 7 7 9 9 10 8 8 6 5 5
11 11 10 9 7 6 5 5 4 3 2 3 3 3 2 3 4 4 5 4 4 5 5 5 6 7 7 2 2 3 6 6 8 8 8 9 10 11 12 13 13 10 8
9 10 10 9 7 6 5 5 4 4 4 4 4 3 3 4 4 5 4 5 5 5 5 6 6 6 6 5 6 6 6 8 8 8 8 10 11 9 6 8 11 13 16
8 9 9 9 8 7 7 6 5 5 5 5 4 3 3 4 4 4 4 4 4 5 5 6 6 6 8 6 7 8 7 9 9 9 9 9 8 9 7 7 7 7 8
6 8 8 9 8 7 7 6 5 5 5 5 3 3 3 4 4 5 5 4 4 5 6 6 6 6 7 7 8 8 6 7 9 9 9 8 8 8 7 6 7 8 7
6 7 8 8 7 6 6 5 6 5 4 4 3 3 3 4 5 5 5 5 4 5 7 7 6 7 7 7 9 9 6 7 8 7 7 9 8 8 6 5 6 8 7
8 7 7 7 7 7 6 5 5 4 3 2 2 3 4 4 6 6 4 5 5 6 6 7 8 8 8 8 10 11 6 7 7 7 7 4 3 5 6 6 7 8 7
9 9 6 6 6 6 6 5 5 3 2 3 3 4 4 6 6 4 4 5 5 7 7 7 7 6 5 6 8 12 12 9 7 8 7 4 3 5 7 8 9 10 8
7 7 8 7 6 7 6 6 4 3 3 3 4 5 6 6 6 6 6 6 5 6 5 5 5 5 4 3 6 10 12 12 9 8 10 11 11 10 9 13 13 10 7
6 6 7 7 6 6 7 6 5 4 4 4 4 5 6 7 7 5 5 6 5 5 5 5 6 5 5 3 0 2 4 8 8 8 9 12 14 12 12 10 9 8 8
4 5 4 4 5 5 5 6 5 5 5 5 5 6 7 8 6 6 6 6 6 5 6 6 6 6 6 4 2 4 5 5 5 6 7 8 7 6 7 7 7 7 7
3 3 3 3 4 5 5 4 4 4 5 5 6 6 6 6 5 5 6 8 10 10 13 13 10 8 9 10 9 9 8 8 6 5 8 8 8 7 7 6 6 6 7
Wind_Direction
122 122 124 125 124 124 129 129 125 125 133 120 125 118 111 190 157 138 125 111 75 56 345 344 349 303 336 352 331 335 314 300 290 290 290 273 250 235 227 224 229 226 221
136 136 136 134 132 137 136 132 130 134 135 118 126 174 125 253 120 95 115 127 113 5 299 29 327 336 334 291 285 279 283 302 314 306 302 302 292 289 254 223 223 230 225
150 149 145 142 142 140 141 132 128 129 128 128 156 67 97 268 96 117 152 137 61 333 334 315 308 331 316 309 327 296 289 293 300 283 284 302 315 333 306 307 279 248 240
151 152 152 149 148 147 139 128 128 130 133 138 53 340 303 345 2 14 54 44 341 297 283 280 298 325 318 316 309 334 332 309 299 299 283 266 280 288 310 315 315 298 271
154 154 151 152 153 150 142 140 140 140 138 144 69 336 346 355 4 10 359 341 289 262 253 244 254 319 297 305 321 322 314 305 297 300 306 303 291 254 252 282 298 299 281
156 152 148 151 154 152 152 149 142 143 150 182 221 360 347 350 336 323 311 306 304 300 308 332 44 344 315 318 314 306 295 286 290 293 294 296 293 289 278 279 289 290 287
158 155 156 163 164 161 149 136 136 144 158 175 80 20 5 326 295 304 326 335 323 330 28 23 13 336 318 303 289 287 281 283 284 280 274 278 285 289 287 289 291 294 293
161 164 166 168 170 159 147 140 135 138 140 122 87 26 337 311 344 14 351 325 320 340 7 352 332 315 303 300 309 305 289 282 281 280 277 276 278 282 284 281 288 295 293
166 169 166 163 160 147 140 130 127 128 127 123 158 238 235 296 326 329 301 313 349 327 349 342 323 310 303 299 298 287 289 289 283 279 279 273 273 275 272 272 265 268 281
166 160 150 139 128 125 122 118 125 134 157 209 252 307 20 303 301 299 308 304 301 310 314 307 304 300 297 294 289 287 284 288 284 276 274 278 274 277 280 272 269 261 263
165 151 142 137 139 141 143 145 154 164 176 198 185 299 284 305 308 288 286 301 309 306 295 292 292 292 288 285 282 283 283 282 280 281 280 278 277 275 280 282 277 269 264
157 151 148 147 152 156 159 158 161 175 179 173 177 243 270 295 306 308 319 315 304 297 295 296 294 290 290 291 291 289 291 291 289 286 283 281 280 275 270 271 275 275 270
152 146 142 150 158 161 155 156 167 181 188 125 287 276 279 294 295 294 293 292 291 291 291 287 287 289 291 288 283 278 279 281 284 286 285 282 281 280 274 273 272 275 276
151 145 139 149 153 151 158 177 177 177 164 116 277 281 284 281 282 287 289 287 289 289 284 283 283 284 283 279 278 280 283 287 289 288 286 284 277 272 271 272 266 269 271
163 161 156 160 160 167 169 185 181 164 155 223 259 263 270 282 280 280 283 283 282 286 287 289 286 283 279 280 299 307 299 304 301 293 287 282 279 275 268 270 272 281 281
173 171 168 165 168 177 180 175 176 171 185 227 255 262 268 274 273 274 272 277 281 286 285 281 283 283 288 297 278 285 299 295 290 288 286 285 277 267 252 248 249 249 256
175 170 166 162 165 173 167 178 183 177 201 226 247 250 255 270 276 286 296 294 293 291 288 285 283 283 284 264 245 250 273 282 281 281 282 283 285 297 288 265 253 248 246
170 160 160 159 165 166 168 183 190 191 211 226 240 252 261 273 281 283 283 284 286 286 287 285 285 284 285 270 244 245 259 274 274 272 270 271 275 280 285 289 282 270 257
151 147 155 157 159 167 172 180 198 211 222 235 243 261 275 284 285 283 284 285 284 285 283 281 277 276 278 264 239 235 269 273 276 273 273 271 270 269 266 266 272 275 274
143 146 157 153 154 161 163 181 209 220 232 249 260 271 274 275 278 278 278 281 282 281 282 283 285 282 278 262 233 223 260 278 284 285 279 270 269 273 258 255 264 269 273
147 150 153 151 155 155 159 191 219 229 241 261 267 265 260 260 260 259 260 269 274 278 280 280 276 271 267 257 231 221 241 269 286 292 294 299 305 277 265 260 262 267 281
164 164 155 152 152 159 170 197 218 227 235 254 265 269 266 269 275 270 267 267 268 274 272 269 270 269 261 247 223 213 225 248 272 281 286 296 295 280 268 260 259 264 270
167 167 162 163 165 170 179 201 209 213 229 246 257 264 267 265 264 261 265 267 262 269 280 288 290 289 282 255 215 215 231 243 252 270 283 291 283 275 265 253 250 251 248
165 165 168 175 178 182 187 196 199 202 222 241 252 260 261 261 258 248 259 265 269 274 283 291 293 297 298 304 319 245 253 251 252 264 279 278 268 257 258 264 250 234 238
149 160 167 174 179 183 191 199 198 197 223 244 255 262 263 263 256 251 249 254 255 255 256 272 281 289 291 299 287 288 298 306 323 319 290 280 274 263 252 246 243 238 231
140 152 170 186 187 185 195 203 200 202 223 245 255 263 270 273 271 269 269 245 238 241 232 235 245 263 264 271 273 272 273 275 278 282 276 277 276 275 271 260 251 244 238